�������l�o���
Date,Time,MP-1(��Sv/h),MP-2(��Sv/h),MP-3(��Sv/h),MP-4(��Sv/h),MP-5(��Sv/h),MP-6(��Sv/h),MP-7(��Sv/h),MP-8(��Sv/h),����,����(m/s),���J
2024/06/20,00:00,0.503,0.767,0.487,0.950,0.695,0.315,0.550,0.510,���쐼,4.1,��
2024/06/20,00:10,0.503,0.770,0.486,0.953,0.697,0.315,0.549,0.510,���쐼,4.4,��
2024/06/20,00:20,0.503,0.767,0.486,0.950,0.695,0.316,0.550,0.509,���쐼,4.6,��
2024/06/20,00:30,0.503,0.769,0.487,0.952,0.696,0.314,0.550,0.510,���쐼,4.3,��
2024/06/20,00:40,0.502,0.767,0.484,0.954,0.694,0.315,0.550,0.510,�쐼,3.3,��
2024/06/20,00:50,0.502,0.770,0.486,0.951,0.695,0.314,0.551,0.510,���쐼,3.0,��
2024/06/20,01:00,0.503,0.766,0.486,0.950,0.695,0.315,0.551,0.511,�쐼,3.1,��
2024/06/20,01:10,0.501,0.768,0.487,0.951,0.695,0.315,0.551,0.510,��쐼,3.1,��
2024/06/20,01:20,0.501,0.769,0.485,0.953,0.696,0.314,0.552,0.508,�쐼,4.2,��
2024/06/20,01:30,0.501,0.769,0.485,0.953,0.696,0.315,0.552,0.509,�쐼,3.6,��
2024/06/20,01:40,0.501,0.768,0.485,0.950,0.695,0.314,0.551,0.509,�쐼,2.8,��
2024/06/20,01:50,0.502,0.768,0.483,0.952,0.696,0.315,0.552,0.510,���쐼,2.3,��
2024/06/20,02:00,0.502,0.770,0.485,0.951,0.695,0.315,0.551,0.510,�쐼,2.2,��
2024/06/20,02:10,0.501,0.767,0.485,0.951,0.695,0.314,0.550,0.509,���쐼,0.9,��
2024/06/20,02:20,0.503,0.767,0.486,0.951,0.696,0.315,0.551,0.509,���k��,1.2,��
2024/06/20,02:30,0.501,0.768,0.485,0.951,0.696,0.314,0.551,0.508,���k��,0.9,��
2024/06/20,02:40,0.501,0.768,0.485,0.952,0.695,0.315,0.553,0.509,�k�k��,1.2,��
2024/06/20,02:50,0.502,0.769,0.483,0.950,0.695,0.314,0.552,0.509,�k��,3.1,��
2024/06/20,03:00,0.502,0.769,0.486,0.950,0.695,0.314,0.552,0.509,�k��,4.8,��
2024/06/20,03:10,0.501,0.767,0.484,0.950,0.695,0.315,0.553,0.509,�k��,4.9,��
2024/06/20,03:20,0.502,0.768,0.486,0.950,0.696,0.316,0.551,0.510,�k�k��,4.0,��
2024/06/20,03:30,0.502,0.769,0.485,0.954,0.697,0.316,0.551,0.507,�k,3.2,��
2024/06/20,03:40,0.501,0.768,0.486,0.950,0.693,0.314,0.553,0.509,�k,3.2,��
2024/06/20,03:50,0.503,0.769,0.485,0.952,0.696,0.315,0.551,0.511,�k,4.3,��
2024/06/20,04:00,0.502,0.768,0.486,0.952,0.696,0.315,0.553,0.510,�k�k��,5.2,��
2024/06/20,04:10,0.501,0.768,0.485,0.950,0.697,0.315,0.553,0.509,�k�k��,5.2,��
2024/06/20,04:20,0.503,0.767,0.486,0.951,0.695,0.315,0.552,0.510,�k�k��,6.5,��
2024/06/20,04:30,0.500,0.768,0.485,0.950,0.696,0.315,0.553,0.510,�k�k��,6.0,��
2024/06/20,04:40,0.502,0.768,0.484,0.952,0.695,0.314,0.553,0.510,�k�k��,5.8,��
2024/06/20,04:50,0.502,0.768,0.484,0.950,0.696,0.314,0.553,0.509,�k�k��,6.0,��
2024/06/20,05:00,0.501,0.767,0.484,0.950,0.695,0.313,0.553,0.509,�k�k��,5.3,��
2024/06/20,05:10,0.502,0.769,0.485,0.952,0.694,0.314,0.554,0.510,�k�k��,4.9,��
2024/06/20,05:20,0.501,0.767,0.484,0.951,0.695,0.314,0.553,0.509,�k�k��,4.5,��
2024/06/20,05:30,0.502,0.769,0.485,0.952,0.694,0.314,0.554,0.508,�k�k��,5.6,��
2024/06/20,05:40,0.502,0.770,0.485,0.951,0.695,0.314,0.553,0.509,�k�k��,5.2,��
2024/06/20,05:50,0.502,0.768,0.484,0.951,0.696,0.314,0.554,0.509,�k�k��,5.1,��
2024/06/20,06:00,0.502,0.769,0.485,0.950,0.696,0.314,0.554,0.508,�k�k��,4.9,��
2024/06/20,06:10,0.502,0.768,0.483,0.949,0.695,0.315,0.555,0.508,�k�k��,4.3,��
2024/06/20,06:20,0.500,0.767,0.484,0.950,0.696,0.314,0.555,0.510,�k�k��,3.9,��
2024/06/20,06:30,0.501,0.763,0.484,0.953,0.695,0.316,0.556,0.511,�k�k��,3.4,��
2024/06/20,06:40,0.501,0.767,0.483,0.951,0.695,0.315,0.555,0.511,�k,2.6,��
2024/06/20,06:50,0.500,0.767,0.484,0.948,0.695,0.314,0.555,0.509,�k,2.0,��
2024/06/20,07:00,0.499,0.765,0.484,0.951,0.694,0.313,0.554,0.511,�k,3.4,��
2024/06/20,07:10,0.500,0.766,0.485,0.950,0.695,0.312,0.556,0.510,�k�k��,3.5,��
2024/06/20,07:20,0.500,0.766,0.485,0.951,0.695,0.313,0.555,0.511,�k,3.5,��
2024/06/20,07:30,0.498,0.766,0.485,0.951,0.694,0.313,0.554,0.510,�k,2.8,��
2024/06/20,07:40,0.500,0.767,0.486,0.950,0.694,0.312,0.552,0.510,�k�k��,2.3,��
2024/06/20,07:50,0.500,0.766,0.483,0.952,0.695,0.312,0.552,0.506,�k�k��,2.6,��
2024/06/20,08:00,0.498,0.766,0.485,0.952,0.696,0.312,0.551,0.508,�k�k��,2.6,��
2024/06/20,08:10,0.493,0.767,0.484,0.951,0.696,0.314,0.553,0.508,�k��,1.9,��
2024/06/20,08:20,0.491,0.764,0.483,0.949,0.695,0.312,0.553,0.508,�k�k��,1.7,��
2024/06/20,08:30,0.492,0.766,0.483,0.951,0.694,0.312,0.552,0.508,�k��,2.0,��
2024/06/20,08:40,0.492,0.768,0.483,0.951,0.695,0.313,0.554,0.507,�k��,1.9,��
2024/06/20,08:50,0.496,0.767,0.484,0.952,0.696,0.312,0.553,0.509,���k��,2.0,��
2024/06/20,09:00,0.502,0.768,0.483,0.949,0.695,0.312,0.551,0.509,���k��,2.0,��
2024/06/20,09:10,0.501,0.768,0.482,0.950,0.696,0.313,0.554,0.508,��,2.3,��
2024/06/20,09:20,0.500,0.770,0.483,0.949,0.694,0.313,0.551,0.511,��,2.0,��
2024/06/20,09:30,0.500,0.769,0.485,0.951,0.693,0.313,0.552,0.510,��,2.6,��
2024/06/20,09:40,0.501,0.768,0.482,0.951,0.693,0.312,0.550,0.508,��,2.3,��
2024/06/20,09:50,0.492,0.770,0.482,0.950,0.695,0.313,0.552,0.508,���쓌,2.6,��
2024/06/20,10:00,0.495,0.769,0.481,0.950,0.695,0.312,0.550,0.507,��,2.3,��
2024/06/20,10:10,0.495,0.770,0.483,0.951,0.697,0.314,0.550,0.507,���쓌,2.6,��
2024/06/20,10:20,0.492,0.771,0.482,0.952,0.695,0.312,0.551,0.509,���쓌,2.2,��
2024/06/20,10:30,0.494,0.770,0.483,0.951,0.696,0.313,0.551,0.508,�쓌,2.2,��
2024/06/20,10:40,0.494,0.770,0.483,0.950,0.697,0.313,0.550,0.507,�쓌,2.2,��
2024/06/20,10:50,0.502,0.768,0.483,0.953,0.696,0.312,0.550,0.507,�쓌,2.3,��
2024/06/20,11:00,0.502,0.771,0.484,0.951,0.694,0.313,0.550,0.508,�쓌,2.5,��
2024/06/20,11:10,0.504,0.773,0.484,0.950,0.695,0.312,0.550,0.508,�쓌,2.3,��
2024/06/20,11:20,0.502,0.772,0.485,0.948,0.694,0.313,0.551,0.507,���쓌,2.8,��
2024/06/20,11:30,0.502,0.771,0.486,0.949,0.696,0.313,0.551,0.508,�쓌,3.2,��
2024/06/20,11:40,0.503,0.772,0.484,0.950,0.698,0.314,0.551,0.510,�쓌,4.0,��
2024/06/20,11:50,0.502,0.771,0.485,0.950,0.696,0.315,0.553,0.508,��쓌,4.8,��
2024/06/20,12:00,0.502,0.772,0.484,0.949,0.698,0.313,0.550,0.509,��쓌,5.1,��
2024/06/20,12:10,0.501,0.772,0.485,0.950,0.696,0.313,0.551,0.510,��쓌,5.5,��
2024/06/20,12:20,0.502,0.773,0.485,0.949,0.699,0.313,0.552,0.509,��쓌,5.6,��
2024/06/20,12:30,0.502,0.771,0.485,0.952,0.698,0.314,0.550,0.510,��쓌,7.0,��
2024/06/20,12:40,0.505,0.771,0.487,0.951,0.700,0.314,0.552,0.508,��쓌,7.4,��
2024/06/20,12:50,0.503,0.772,0.486,0.951,0.699,0.315,0.550,0.510,��쓌,8.0,��
2024/06/20,13:00,0.503,0.771,0.485,0.951,0.699,0.314,0.553,0.508,��쓌,7.9,��
2024/06/20,13:10,0.504,0.774,0.487,0.951,0.700,0.314,0.551,0.509,��쓌,6.6,��
2024/06/20,13:20,0.503,0.774,0.486,0.951,0.700,0.316,0.551,0.508,�쓌,5.2,��
2024/06/20,13:30,0.504,0.771,0.487,0.954,0.701,0.314,0.551,0.507,�쓌,5.6,��
2024/06/20,13:40,0.505,0.772,0.485,0.952,0.701,0.315,0.551,0.509,�쓌,5.2,��
2024/06/20,13:50,0.503,0.771,0.486,0.952,0.701,0.314,0.552,0.510,��쓌,5.0,��
2024/06/20,14:00,0.503,0.772,0.485,0.953,0.701,0.315,0.552,0.510,��쓌,4.2,��
2024/06/20,14:10,0.505,0.770,0.486,0.953,0.703,0.315,0.549,0.510,�쓌,3.8,��
2024/06/20,14:20,0.504,0.773,0.487,0.951,0.701,0.315,0.553,0.509,��쓌,6.5,��
2024/06/20,14:30,0.505,0.772,0.486,0.952,0.700,0.314,0.553,0.510,��쓌,7.2,��
2024/06/20,14:40,0.506,0.773,0.488,0.953,0.702,0.317,0.551,0.509,��쓌,7.2,��
2024/06/20,14:50,0.504,0.771,0.488,0.954,0.702,0.314,0.553,0.510,��쓌,7.5,��
2024/06/20,15:00,0.505,0.772,0.486,0.953,0.701,0.314,0.551,0.509,��쓌,5.2,��
2024/06/20,15:10,0.504,0.773,0.486,0.951,0.699,0.314,0.553,0.507,��쓌,6.7,��
2024/06/20,15:20,0.504,0.774,0.488,0.954,0.702,0.315,0.551,0.510,��쓌,5.6,��
2024/06/20,15:30,0.506,0.774,0.486,0.954,0.701,0.315,0.551,0.509,��쓌,9.4,��
2024/06/20,15:40,0.505,0.774,0.486,0.955,0.700,0.315,0.551,0.509,��쓌,8.2,��
2024/06/20,15:50,0.505,0.772,0.488,0.956,0.701,0.315,0.552,0.509,��쓌,8.5,��
2024/06/20,16:00,0.504,0.771,0.487,0.953,0.701,0.315,0.552,0.509,��쓌,8.9,��
2024/06/20,16:10,0.503,0.773,0.485,0.954,0.702,0.316,0.552,0.510,��,7.7,��
2024/06/20,16:20,0.506,0.773,0.487,0.953,0.703,0.314,0.552,0.508,��,7.5,��
2024/06/20,16:30,0.503,0.774,0.487,0.954,0.703,0.314,0.553,0.509,��,7.3,��
2024/06/20,16:40,0.504,0.773,0.486,0.956,0.702,0.316,0.551,0.509,��,5.3,��
2024/06/20,16:50,0.504,0.773,0.486,0.955,0.702,0.314,0.550,0.509,��쓌,6.1,��
2024/06/20,17:00,0.505,0.774,0.488,0.955,0.701,0.315,0.551,0.508,��,6.7,��
2024/06/20,17:10,0.504,0.772,0.487,0.957,0.703,0.316,0.551,0.509,��,8.6,��
2024/06/20,17:20,0.504,0.774,0.486,0.956,0.702,0.315,0.550,0.508,��,8.2,��
2024/06/20,17:30,0.504,0.772,0.486,0.955,0.705,0.316,0.550,0.507,��,8.1,��
2024/06/20,17:40,0.504,0.772,0.487,0.958,0.703,0.317,0.550,0.506,��,6.8,��
2024/06/20,17:50,0.504,0.775,0.486,0.955,0.705,0.317,0.551,0.508,��,6.3,��
2024/06/20,18:00,0.504,0.774,0.486,0.955,0.703,0.316,0.551,0.511,��,8.8,��
2024/06/20,18:10,0.504,0.775,0.488,0.957,0.702,0.316,0.550,0.511,��,6.8,��
2024/06/20,18:20,0.504,0.775,0.488,0.957,0.703,0.317,0.550,0.510,��,6.3,��
2024/06/20,18:30,0.504,0.775,0.490,0.957,0.705,0.317,0.551,0.511,��,6.5,��
2024/06/20,18:40,0.502,0.777,0.487,0.956,0.704,0.315,0.551,0.510,��,7.1,��
2024/06/20,18:50,0.504,0.774,0.489,0.956,0.702,0.318,0.549,0.511,��,6.7,��
2024/06/20,19:00,0.503,0.777,0.488,0.957,0.704,0.318,0.549,0.511,��,6.1,��
2024/06/20,19:10,0.504,0.778,0.490,0.956,0.704,0.316,0.550,0.510,��,6.2,��
2024/06/20,19:20,0.504,0.776,0.488,0.958,0.705,0.316,0.552,0.511,��,6.3,��
2024/06/20,19:30,0.504,0.776,0.489,0.957,0.705,0.316,0.552,0.511,��,6.8,��
2024/06/20,19:40,0.504,0.775,0.489,0.957,0.704,0.315,0.552,0.510,��,6.5,��
2024/06/20,19:50,0.506,0.776,0.490,0.960,0.704,0.317,0.552,0.511,��,5.5,��
2024/06/20,20:00,0.504,0.776,0.488,0.961,0.704,0.317,0.550,0.510,��쐼,5.0,��
2024/06/20,20:10,0.506,0.776,0.489,0.960,0.704,0.317,0.552,0.510,��,5.1,��
2024/06/20,20:20,0.504,0.776,0.491,0.959,0.706,0.316,0.550,0.510,��쐼,4.8,��
2024/06/20,20:30,0.506,0.775,0.490,0.959,0.706,0.317,0.552,0.511,��쐼,4.4,��
2024/06/20,20:40,0.504,0.775,0.490,0.959,0.704,0.316,0.549,0.511,��쐼,4.5,��
2024/06/20,20:50,0.505,0.776,0.489,0.958,0.704,0.316,0.551,0.510,��쐼,4.1,��
2024/06/20,21:00,0.505,0.776,0.489,0.961,0.704,0.316,0.552,0.511,��,3.4,��
2024/06/20,21:10,0.505,0.776,0.489,0.958,0.703,0.317,0.552,0.511,��쐼,3.8,��
2024/06/20,21:20,0.505,0.776,0.490,0.958,0.704,0.316,0.551,0.510,��쐼,3.2,��
2024/06/20,21:30,0.504,0.774,0.489,0.961,0.703,0.316,0.553,0.512,��쐼,3.9,��
2024/06/20,21:40,0.506,0.777,0.490,0.960,0.705,0.317,0.552,0.511,��,4.3,��
2024/06/20,21:50,0.505,0.776,0.489,0.959,0.704,0.316,0.553,0.509,��,4.6,��
2024/06/20,22:00,0.506,0.778,0.490,0.960,0.705,0.315,0.552,0.512,��,4.7,��
2024/06/20,22:10,0.504,0.777,0.490,0.960,0.704,0.317,0.552,0.511,��,4.6,��
2024/06/20,22:20,0.505,0.777,0.490,0.960,0.704,0.318,0.552,0.510,��쐼,4.3,��
2024/06/20,22:30,0.506,0.776,0.490,0.961,0.707,0.317,0.552,0.511,��쐼,4.3,��
2024/06/20,22:40,0.506,0.777,0.488,0.961,0.706,0.317,0.553,0.510,��쐼,3.7,��
2024/06/20,22:50,0.506,0.775,0.490,0.960,0.704,0.316,0.552,0.510,��쐼,3.8,��
2024/06/20,23:00,0.505,0.776,0.490,0.960,0.705,0.317,0.552,0.511,��쐼,3.0,��
2024/06/20,23:10,0.507,0.777,0.490,0.958,0.704,0.317,0.552,0.511,��쐼,2.3,��
2024/06/20,23:20,0.506,0.776,0.489,0.960,0.704,0.317,0.552,0.511,��쐼,3.1,��
2024/06/20,23:30,0.507,0.776,0.490,0.959,0.704,0.318,0.552,0.512,��쐼,2.3,��
2024/06/20,23:40,0.506,0.775,0.490,0.961,0.704,0.318,0.550,0.512,��쐼,2.5,��
2024/06/20,23:50,0.506,0.776,0.490,0.961,0.704,0.318,0.553,0.511,��,2.5,��
